Weather in Zhalpaktal

Kazakhstan     49°40′00″N   49°28′27″E
temp.,
°C
wind,
m/s
gust,
m/s
humid.,
%
clouds,
%
prec.,
mm/h
press.,
hPa
HPBL,
m
17 april, sat
sat1723:00+12nnw448043 3.0 101658
02:00+12n337324 0.0 101534
05:00+11nw33725 0.0 101630
08:00+12nnw33764 0.0 101766
11:00+19nne455016 0.0 1016562
14:00+22nnw1239100 0.0 10171944
17:00+22n2335100 0.0 10172176
20:00+19e345199 0.0 101771
18 april, sun
sun1823:00+14nw8106996 0.1 1019282
02:00+13w5974100 0.3 1019307
05:00+13w3578100 0.4 1019183
08:00+12w2484100 0.0 1019170
11:00+15w446223 0.0 1019812
14:00+18w444153 0.0 10181636
17:00+19wnw443580 0.0 10181818
20:00+16wnw3453100 0.0 101868
19 april, mon
mon1923:00+13nw3364100 0.0 101840
02:00+11nnw337186 0.0 101831
05:00+10nnw33815 0.0 101834
08:00+11nnw348199 0.0 1018102
11:00+16n335591 0.0 1018709
14:00+19nw224193 0.0 10172056
17:00+18ne545198 0.0 1017917
20:00+16ne356428 0.0 1017161
20 april, tue
tue2023:00+12ne5108213 0.0 1018254
02:00+11ne61089100 0.0 1018296
05:00+10e71285100 0.0 1019397
08:00+9e81378100 0.0 1020492
11:00+12ese10125998 0.0 1020743
14:00+16ese101249100 0.0 10201178
17:00+16ese101249100 0.0 10201391
20:00+13ese101550100 0.0 1019725
21 april, wed
wed2123:00+12ese101843100 0.0 1020772
02:00+11ese111740100 0.1 1021665
05:00+10se91635100 0.1 1021701
08:00+7ese81450100 1.4 1022532
11:00+5se61371100 4.5 1024567
14:00+5se71485100 6.4 1024566
17:00+6ese61489100 13.1 1023622
20:00+7e3795100 2.9 1024294